Location: ActonStarParty
(42.4766°N, 71.4538°W)
Time: 12:02:48
(UTC-04:00)

Daily predictions for brighter satellites

Satellite Brightness Start Highest point End
(mag) Time Altitude Azimuth Time Altitude Azimuth Time Altitude Azimuth
Cosmos 1802 Rocket 4.2 20:52:02 10° N 20:58:04 56° ENE 21:04:05 10° SSE
SPOT 5 4.3 20:55:20 10° ESE 20:59:25 26° ENE 21:03:40 10° N
ERBS 2.6 20:57:36 10° NW 21:00:57 57° NE 21:04:17 10° ESE
Tiangong 1 0.7 20:59:04 10° W 21:01:53 88° S 21:04:41 10° E
Abrixas 3.0 20:59:32 10° SSW 21:01:59 31° SE 21:04:26 10° E
Abrixas rocket 2.2 20:59:50 10° WNW 21:03:04 78° NNE 21:06:19 10° ESE
Cosmos 1943 4.1 21:00:39 10° N 21:05:52 36° ENE 21:11:03 10° ESE
Cosmos 1356 Rocket 3.5 21:04:40 10° S 21:08:56 90° WSW 21:13:17 10° N
SL-16 R/B 3.4 21:04:57 10° NW 21:10:11 39° WSW 21:15:23 10° S
H-2A R/B 3.4 21:06:14 10° ESE 21:10:34 26° ENE 21:15:00 10° N
Helios 1A 3.4 21:06:36 10° S 21:10:43 64° W 21:14:50 10° NNW
Okean 3 Rocket 4.2 21:08:24 10° SSW 21:12:50 61° W 21:17:16 10° N
RESURS DK-1 2.4 21:09:04 10° NNW 21:13:16 84° ENE 21:17:25 10° SSE
Cosmos 1766 Rocket 3.5 21:10:34 10° S 21:14:51 68° E 21:19:12 10° NNE
Cosmos 1328 Rocket 4.3 21:11:10 10° N 21:15:12 36° ENE 21:19:08 10° SE
Cosmos 1908 3.6 21:11:31 10° NNW 21:15:22 64° W 21:19:10 10° S
Cosmos 2016 Rocket 4.1 21:10:19 10° N 21:16:32 65° E 21:22:37 10° SSE
Cosmos 332 Rocket 3.9 21:11:49 10° NNW 21:16:43 67° ENE 21:21:36 10° SSE
Terra 3.9 21:17:15 10° E 21:19:43 14° ENE 21:22:11 10° NNE
KORONAS-FOTON 3.8 21:17:59 10° S 21:21:46 88° W 21:25:35 10° N
Cosmos 1515 Rocket 4.4 21:20:47 10° N 21:24:45 34° ENE 21:28:10 13° SE
Envisat 4.3 21:20:18 10° SSW 21:25:01 38° W 21:29:46 10° NNW
Cosmos 1939 Rocket 4.3 21:23:31 10° SSW 21:27:16 37° W 21:31:06 10° NNW
Cosmos 1814 Rocket 4.1 21:24:41 10° NNW 21:30:03 74° ENE 21:34:56 12° SSE
H-2A R/B 4.3 21:28:42 10° E 21:30:07 11° ENE 21:31:31 10° NE
Cosmos 1743 Rocket 3.9 21:26:23 10° SSE 21:30:29 44° E 21:34:36 10° NNE
Meteor 1-29 3.9 21:29:00 10° N 21:32:21 50° WNW 21:35:42 10° SSW
Cosmos 1763 Rocket 3.6 21:27:38 10° NNW 21:32:42 61° ENE 21:37:00 14° SSE
CZ-4C R/B 3.8 21:32:26 12° ESE 21:33:35 13° ESE 21:35:55 10° E
YAOGAN 6 3.7 21:30:08 10° S 21:33:38 44° W 21:37:12 10° NNW
Cosmos 841 Rocket 3.9 21:28:41 10° N 21:33:47 49° ENE 21:37:59 15° SE
USA 245 3.8 21:31:53 14° SE 21:34:54 50° ENE 21:39:25 10° N
Cosmos 220 Rocket 4.0 21:33:07 10° SSW 21:37:31 80° ESE 21:41:54 10° NNE
MetOp-B 4.1 21:32:17 10° SSE 21:37:38 79° ENE 21:43:01 10° N
NOAA 11 4.2 21:33:04 10° SSE 21:38:29 88° WSW 21:43:58 10° NNW
Cosmos 1486 Rocket 4.0 21:37:06 10° S 21:42:18 65° ESE 21:47:34 10° NNE
Cosmos 1626 3.3 21:42:47 18° SE 21:44:33 25° E 21:47:39 10° NE
YAOGAN 11 4.2 21:42:10 15° SSE 21:45:54 69° ENE 21:50:27 10° N
Cosmos 1726 2.4 21:43:07 10° NNW 21:46:46 66° W 21:50:10 12° S
Cosmos 2228 Rocket 3.1 21:43:59 10° N 21:48:35 79° E 21:52:23 15° SSE
USA 234 3.6 21:44:03 10° ENE 21:50:07 39° SE 21:56:09 10° SSW
Cosmos 1703 4.0 21:54:31 21° SE 21:56:34 35° E 22:00:15 10° NNE
Cosmos 2263 Rocket 2.1 21:55:50 10° SSW 22:01:21 71° ESE 22:06:56 10° NNE
Cosmos 2151 3.0 21:59:38 17° S 22:02:52 63° E 22:07:08 10° NNE
Meteor 1-11 4.3 21:58:05 10° S 22:03:48 70° E 22:09:35 10° NNE
Cosmos 371 Rocket 3.9 22:00:23 10° NNW 22:05:04 52° WSW 22:08:54 15° S
SPOT 1/Viking Rocket 3.5 22:02:02 19° SSE 22:05:45 77° ENE 22:10:56 10° N
ERS-1 Rocket 4.0 22:02:20 10° S 22:07:05 42° W 22:11:52 10° NNW
Cosmos 1300 3.5 22:04:54 10° NNW 22:08:36 47° W 22:11:41 14° SSW
Cosmos 2123 Rocket 4.4 22:08:29 10° SSW 22:14:36 64° W 22:20:47 10° N
Meteor 1-27 4.3 22:14:02 10° N 22:19:52 88° W 22:23:47 21° S
SL-08 RB Rocket 4.2 22:19:42 18° S 22:22:56 56° W 22:27:30 10° NNW
Cosmos 540 Rocket 3.6 22:18:17 10° NNW 22:23:25 64° ENE 22:26:04 28° SE
COSMOS 2406 4.5 22:20:39 10° N 22:25:38 30° NE 22:29:00 17° ESE
Cosmos 1503 Rocket 3.9 22:24:11 12° SSW 22:29:02 86° ESE 22:34:14 10° NNE
deb Chang Zheng 4 4.3 22:26:47 10° NNE 22:30:50 35° E 22:31:49 31° SE
ARGOS 4.1 22:27:51 14° SSW 22:32:16 42° W 22:37:25 10° NNW
Cosmos 968 Rocket 4.4 22:32:07 28° SE 22:33:25 31° E 22:38:02 10° NE
Cosmos 1844 Rocket 3.6 22:32:40 26° ESE 22:33:48 28° ESE 22:38:27 10° NE
Cosmos 1500 Rocket 4.4 22:29:52 11° SSW 22:34:04 49° WNW 22:38:24 10° N
IGS 5A 3.5 22:33:38 36° SE 22:35:11 66° ENE 22:39:20 10° N
Abrixas 3.7 22:34:09 10° W 22:36:42 37° NNW 22:39:17 10° NE
SPOT 5 4.0 22:33:34 15° SSW 22:37:14 39° W 22:42:04 10° NNW
Tiangong 1 2.4 22:34:48 10° W 22:36:29 24° SW 22:36:29 24° SW
Cosmos 2285 Rocket 4.0 22:30:55 10° NNW 22:37:18 89° WSW 22:40:56 28° SSE
Lacrosse 5 3.9 22:34:08 10° W 22:37:20 17° WSW 22:39:52 12° SSW
Abrixas rocket 4.2 22:37:19 10° W 22:39:18 17° SW 22:39:18 17° SW
Cosmos 1455 2.1 22:37:16 10° N 22:41:08 86° E 22:42:15 45° SSE
Landsat 7 3.9 22:39:30 29° S 22:41:56 70° WSW 22:46:42 10° NNW
Cosmos 1666 Rocket 4.1 22:42:06 35° SE 22:43:07 41° E 22:47:18 10° NNE
Cosmos 2084 Rocket 3.9 22:41:06 10° NNW 22:44:46 43° NE 22:45:58 32° E
CARTOSAT-1 3.5 22:43:12 38° SSE 22:44:50 90° WSW 22:49:11 10° NNW
H-2A R/B 2.9 22:46:14 20° SSW 22:49:42 45° W 22:54:55 10° NNW
Cosmos 1943 4.4 22:44:48 10° NW 22:49:51 34° WSW 22:53:12 19° SSW
Cosmos 1151 Rocket 4.3 22:45:54 10° NNW 22:49:54 35° W 22:52:26 19° SW
SME Rocket 3.9 22:50:38 31° ESE 22:51:54 40° ENE 22:56:35 10° N
Cosmos 1805 Rocket 3.4 22:52:11 41° S 22:53:41 82° E 22:58:01 10° N
PSLV R/B 3.5 22:54:27 50° NE 22:54:27 50° NE 22:56:57 10° N
Cosmos 1633 Rocket 3.4 22:55:52 42° ESE 22:56:35 46° E 23:00:46 10° NNE
Terra 1.9 22:54:55 35° S 22:56:52 71° WSW 23:01:38 10° NNW
Cosmos 2058 4.3 22:53:41 14° SW 22:56:53 35° WNW 23:00:48 10° N
BREEZE-M DEB (TANK) 4.2 22:55:51 10° NW 22:58:50 40° NNE 23:08:30 10° E
Cosmos 304 Rocket 4.4 22:54:29 10° NNW 22:59:06 48° WSW 23:00:58 31° SSW
Cosmos 1072 Rocket 4.5 22:52:45 10° N 22:59:10 86° E 23:02:18 33° S
Cosmos 1464 Rocket 3.9 22:56:23 10° N 23:02:36 84° E 23:05:27 35° SSE
CZ-2C R/B 4.0 22:59:06 10° NE 23:02:58 20° E 23:03:23 20° E
H-2A R/B 2.1 23:04:24 46° S 23:05:34 72° WSW 23:09:47 10° NNW
Delta 2 Rocket 4.5 23:01:42 10° WSW 23:07:05 41° S 23:07:43 40° S
CZ-4 R/B 3.8 23:10:00 10° NNE 23:14:51 87° WNW 23:16:31 41° SSW
Cosmos 1869 3.3 23:15:01 10° NNW 23:18:56 68° W 23:19:26 59° SW
Cosmos 1626 4.5 23:17:24 11° WSW 23:19:52 20° WNW 23:22:41 10° NNW
Cosmos 1538 Rocket 4.4 23:14:50 10° NNW 23:20:09 57° ENE 23:21:49 40° ESE
CZ-4C R/B 2.1 23:17:30 23° SW 23:20:57 86° NW 23:26:57 10° NE
Cosmos 1933 3.8 23:23:16 10° N 23:27:14 47° ENE 23:27:25 47° E
Cosmos 1470 Rocket 3.7 23:30:21 55° ESE 23:30:37 56° E 23:35:00 10° NNE
Cosmos 1400 Rocket 2.8 23:33:00 69° ESE 23:33:06 70° E 23:37:14 10° NNE
Cosmos 1315 Rocket 3.9 23:33:47 32° ENE 23:33:47 32° ENE 23:36:48 10° NNE
USA 234 3.6 23:26:51 10° NE 23:33:19 64° NW 23:39:45 10° WSW
ARGOS Delta rocket 4.0 23:28:16 10° NNE 23:33:28 65° E 23:34:22 54° SSE
Cosmos 2278 Rocket 2.8 23:36:33 37° ESE 23:36:57 37° ESE 23:42:06 10° NE
CZ-4C R/B 3.5 23:37:04 62° SSW 23:37:38 71° W 23:42:04 10° NNW
Spot 4 4.3 23:36:52 43° SSW 23:38:02 54° W 23:42:50 10° NNW
CZ-2C R/B 3.7 23:38:48 39° ESE 23:40:35 54° ENE 23:46:03 10° N
Cosmos 773 Rocket 4.2 23:35:29 10° NNW 23:40:44 63° ENE 23:42:00 48° ESE
Tsikada Rocket 4.0 23:39:08 41° S 23:41:34 89° E 23:47:55 10° N
Sich 1 4.0 23:43:19 33° WSW 23:44:30 40° WNW 23:48:33 10° N
Cosmos 1844 3.6 23:43:57 47° SSW 23:45:37 83° ESE 23:51:15 10° NNE
Cosmos 2242 Rocket 3.6 23:41:07 10° NNW 23:45:43 74° W 23:46:18 63° SSW
Cosmos 489 Rocket 4.5 23:45:10 46° SSE 23:47:02 67° ESE 23:53:20 10° NNE
Cosmos 1346 Rocket 4.3 23:48:15 10° NNE 23:51:30 26° ENE 23:51:30 26° ENE
